Time,TemperatureF,DewpointF,PressureIn,WindDirection,WindDirectionDegrees,WindSpeedMPH,WindSpeedGustMPH,Humidity,HourlyPrecipIn,Conditions,Clouds,dailyrainin,SoftwareType,DateUTC
2013-01-11 00:03:00,33.0,31.0,29.54,East,85,0.0,2.0,93,0.00,,,0.00,,2013-01-11 06:03:00,
2013-01-11 00:12:00,33.0,31.0,29.54,East,85,0.0,2.0,93,0.00,,,0.00,,2013-01-11 06:12:00,
2013-01-11 00:22:00,33.0,31.0,29.52,NNE,22,0.0,1.0,93,0.00,,,0.00,,2013-01-11 06:22:00,
2013-01-11 00:32:00,33.0,31.0,29.52,South,191,0.0,2.0,93,0.00,,,0.00,,2013-01-11 06:32:00,
2013-01-11 00:42:00,33.0,31.0,29.52,South,191,0.0,2.0,93,0.00,,,0.00,,2013-01-11 06:42:00,
2013-01-11 00:52:00,33.0,31.0,29.52,SE,136,0.0,4.0,93,0.00,,,0.00,,2013-01-11 06:52:00,
2013-01-11 01:02:00,33.0,31.0,29.50,NE,55,0.0,2.0,93,0.00,,,0.00,,2013-01-11 07:02:00,
2013-01-11 01:12:00,33.0,31.0,29.50,NE,55,0.0,2.0,93,0.00,,,0.00,,2013-01-11 07:12:00,
2013-01-11 01:22:00,33.0,31.0,29.49,NE,34,0.0,3.0,93,0.00,,,0.00,,2013-01-11 07:22:00,
2013-01-11 01:32:00,34.0,32.0,29.49,NE,47,1.0,6.0,93,0.00,,,0.00,,2013-01-11 07:32:00,
2013-01-11 01:42:00,34.0,32.0,29.49,East,96,1.0,5.0,93,0.00,,,0.00,,2013-01-11 07:42:00,
2013-01-11 01:52:00,34.0,32.0,29.49,East,96,1.0,5.0,93,0.00,,,0.00,,2013-01-11 07:52:00,
2013-01-11 02:02:00,34.0,32.0,29.49,NE,53,0.0,2.0,93,0.00,,,0.00,,2013-01-11 08:02:00,
2013-01-11 02:12:00,34.0,32.0,29.49,NNE,29,0.0,3.0,93,0.00,,,0.00,,2013-01-11 08:12:00,
2013-01-11 02:22:00,34.0,32.0,29.49,NNE,29,0.0,3.0,93,0.00,,,0.00,,2013-01-11 08:22:00,
2013-01-11 02:32:00,34.0,32.0,29.49,NNE,29,0.0,3.0,93,0.00,,,0.00,,2013-01-11 08:32:00,
2013-01-11 02:42:00,34.0,32.0,29.49,NNE,29,0.0,3.0,93,0.00,,,0.00,,2013-01-11 08:42:00,
2013-01-11 02:52:00,34.0,32.0,29.47,NE,51,0.0,3.0,93,0.00,,,0.00,,2013-01-11 08:52:00,
2013-01-11 03:02:00,34.0,32.0,29.45,NE,56,1.0,3.0,93,0.00,,,0.00,,2013-01-11 09:02:00,
2013-01-11 03:12:00,34.0,32.0,29.45,NE,56,1.0,3.0,93,0.00,,,0.00,,2013-01-11 09:12:00,
2013-01-11 03:22:00,34.0,32.0,29.45,NE,56,0.0,3.0,93,0.00,,,0.00,,2013-01-11 09:22:00,
2013-01-11 03:32:00,34.0,32.0,29.45,ESE,108,0.0,1.0,93,0.00,,,0.00,,2013-01-11 09:32:00,
2013-01-11 03:42:00,34.0,32.0,29.45,ESE,108,0.0,1.0,93,0.00,,,0.00,,2013-01-11 09:42:00,
2013-01-11 03:52:00,34.0,32.0,29.44,East,79,0.0,1.0,93,0.00,,,0.00,,2013-01-11 09:52:00,
2013-01-11 04:02:00,34.0,32.0,29.43,NNE,14,0.0,2.0,93,0.00,,,0.00,,2013-01-11 10:02:00,
2013-01-11 04:12:00,34.0,32.0,29.43,NNE,14,0.0,2.0,93,0.00,,,0.00,,2013-01-11 10:12:00,
2013-01-11 04:22:00,34.0,32.0,29.42,ESE,111,0.0,5.0,94,0.01,,,0.01,,2013-01-11 10:22:00,
2013-01-11 04:32:00,34.0,32.0,29.42,NNW,343,1.0,6.0,94,0.01,,,0.01,,2013-01-11 10:32:00,
2013-01-11 04:42:00,34.0,32.0,29.42,NNW,343,1.0,6.0,94,0.01,,,0.01,,2013-01-11 10:42:00,
2013-01-11 04:52:00,34.0,32.0,29.41,NNE,23,1.0,4.0,94,0.01,,,0.01,,2013-01-11 10:52:00,
2013-01-11 05:03:00,34.0,32.0,29.40,NNE,15,0.0,3.0,94,0.01,,,0.01,,2013-01-11 11:03:00,
2013-01-11 05:12:00,34.0,32.0,29.40,NNE,15,0.0,3.0,94,0.01,,,0.01,,2013-01-11 11:12:00,
2013-01-11 05:22:00,34.0,32.0,29.39,SE,138,0.0,2.0,94,0.00,,,0.01,,2013-01-11 11:22:00,
2013-01-11 05:33:00,34.0,32.0,29.40,South,170,0.0,4.0,94,0.00,,,0.01,,2013-01-11 11:33:00,
2013-01-11 05:42:00,34.0,32.0,29.40,South,170,0.0,4.0,94,0.00,,,0.01,,2013-01-11 11:42:00,
2013-01-11 05:52:00,34.0,32.0,29.39,SSE,151,1.0,3.0,94,0.00,,,0.01,,2013-01-11 11:52:00,
2013-01-11 06:03:00,34.0,32.0,29.38,East,88,0.0,2.0,94,0.00,,,0.01,,2013-01-11 12:03:00,
2013-01-11 06:12:00,34.0,32.0,29.38,East,88,0.0,2.0,94,0.00,,,0.01,,2013-01-11 12:12:00,
2013-01-11 06:22:00,34.0,32.0,29.36,West,265,0.0,6.0,94,0.00,,,0.01,,2013-01-11 12:22:00,
2013-01-11 06:33:00,34.0,32.0,29.35,NNE,13,1.0,3.0,93,0.00,,,0.01,,2013-01-11 12:33:00,
2013-01-11 06:42:00,34.0,32.0,29.35,NNE,13,1.0,3.0,93,0.00,,,0.01,,2013-01-11 12:42:00,
2013-01-11 06:52:00,34.0,32.0,29.34,NE,41,1.0,3.0,94,0.00,,,0.01,,2013-01-11 12:52:00,
2013-01-11 07:03:00,34.0,32.0,29.35,South,184,0.0,4.0,94,0.00,,,0.01,,2013-01-11 13:03:00,
2013-01-11 07:13:00,34.0,32.0,29.35,South,184,0.0,4.0,94,0.00,,,0.01,,2013-01-11 13:13:00,
2013-01-11 07:22:00,34.0,32.0,29.34,ESE,105,0.0,4.0,94,0.00,,,0.01,,2013-01-11 13:22:00,
2013-01-11 07:33:00,34.0,32.0,29.34,ESE,105,0.0,4.0,94,0.00,,,0.01,,2013-01-11 13:33:00,
2013-01-11 07:42:00,34.0,32.0,29.34,ESE,105,0.0,4.0,94,0.00,,,0.01,,2013-01-11 13:42:00,
2013-01-11 07:52:00,34.0,32.0,29.35,SE,144,0.0,0.0,94,0.00,,,0.01,,2013-01-11 13:52:00,
2013-01-11 08:03:00,34.0,32.0,29.35,SE,144,0.0,0.0,94,0.00,,,0.01,,2013-01-11 14:03:00,
2013-01-11 08:12:00,34.0,32.0,29.35,SE,144,0.0,0.0,94,0.00,,,0.01,,2013-01-11 14:12:00,
2013-01-11 08:23:00,34.0,32.0,29.36,SE,144,0.0,0.0,94,0.00,,,0.01,,2013-01-11 14:23:00,
2013-01-11 08:33:00,34.0,32.0,29.35,SE,144,0.0,0.0,94,0.00,,,0.01,,2013-01-11 14:33:00,
2013-01-11 08:43:00,34.0,32.0,29.35,SE,144,0.0,0.0,94,0.00,,,0.01,,2013-01-11 14:43:00,
2013-01-11 08:53:00,34.0,32.0,29.35,SE,144,0.0,0.0,94,0.00,,,0.01,,2013-01-11 14:53:00,
2013-01-11 09:03:00,34.0,32.0,29.35,SE,144,0.0,0.0,94,0.00,,,0.01,,2013-01-11 15:03:00,
2013-01-11 09:13:00,34.0,32.0,29.35,SE,144,0.0,0.0,94,0.00,,,0.01,,2013-01-11 15:13:00,
2013-01-11 09:23:00,34.0,32.0,29.35,SE,144,0.0,0.0,94,0.00,,,0.01,,2013-01-11 15:23:00,
2013-01-11 09:33:00,34.0,32.0,29.36,South,172,0.0,1.0,94,0.00,,,0.01,,2013-01-11 15:33:00,
2013-01-11 09:43:00,34.0,32.0,29.36,South,172,0.0,1.0,94,0.00,,,0.01,,2013-01-11 15:43:00,
2013-01-11 09:52:00,34.0,32.0,29.35,South,172,0.0,1.0,93,0.00,,,0.01,,2013-01-11 15:52:00,
2013-01-11 10:03:00,34.0,32.0,29.36,NE,42,0.0,1.0,93,0.00,,,0.01,,2013-01-11 16:03:00,
2013-01-11 10:12:00,34.0,32.0,29.36,NE,42,0.0,1.0,93,0.00,,,0.01,,2013-01-11 16:12:00,
2013-01-11 10:22:00,34.0,32.0,29.37,NE,42,0.0,0.0,93,0.00,,,0.01,,2013-01-11 16:22:00,
2013-01-11 10:33:00,34.0,32.0,29.37,WNW,298,0.0,2.0,94,0.00,,,0.01,,2013-01-11 16:33:00,
2013-01-11 10:42:00,34.0,32.0,29.37,WNW,298,0.0,2.0,94,0.00,,,0.01,,2013-01-11 16:42:00,
2013-01-11 10:52:00,34.0,32.0,29.35,WSW,253,0.0,2.0,94,0.00,,,0.01,,2013-01-11 16:52:00,
2013-01-11 11:03:00,34.0,32.0,29.34,WNW,298,0.0,2.0,94,0.00,,,0.01,,2013-01-11 17:03:00,
2013-01-11 11:12:00,34.0,32.0,29.34,WNW,298,0.0,2.0,94,0.00,,,0.01,,2013-01-11 17:12:00,
2013-01-11 11:22:00,34.0,32.0,29.35,East,82,0.0,4.0,94,0.00,,,0.01,,2013-01-11 17:22:00,
2013-01-11 11:33:00,34.0,32.0,29.36,NNE,30,1.0,3.0,93,0.00,,,0.01,,2013-01-11 17:33:00,
2013-01-11 11:43:00,34.0,32.0,29.36,NNE,30,1.0,3.0,93,0.00,,,0.01,,2013-01-11 17:43:00,
2013-01-11 11:53:00,34.0,32.0,29.36,NNE,18,1.0,4.0,92,0.00,,,0.01,,2013-01-11 17:53:00,
2013-01-11 12:03:00,34.0,32.0,29.35,NNE,21,3.0,6.0,92,0.00,,,0.01,,2013-01-11 18:03:00,
2013-01-11 12:12:00,34.0,32.0,29.35,NNE,21,3.0,6.0,92,0.00,,,0.01,,2013-01-11 18:12:00,
2013-01-11 12:23:00,34.0,32.0,29.34,NNE,22,3.0,7.0,91,0.00,,,0.01,,2013-01-11 18:23:00,
2013-01-11 12:33:00,35.0,32.0,29.33,NNE,12,2.0,7.0,90,0.00,,,0.01,,2013-01-11 18:33:00,
2013-01-11 12:43:00,35.0,32.0,29.33,NNE,12,2.0,7.0,90,0.00,,,0.01,,2013-01-11 18:43:00,
2013-01-11 12:53:00,35.0,32.0,29.34,North,5,2.0,7.0,89,0.00,,,0.01,,2013-01-11 18:53:00,
2013-01-11 13:02:00,36.0,33.0,29.32,North,360,2.0,7.0,88,0.00,,,0.01,,2013-01-11 19:02:00,
2013-01-11 13:12:00,36.0,33.0,29.32,North,360,2.0,7.0,88,0.00,,,0.01,,2013-01-11 19:12:00,
2013-01-11 13:22:00,36.0,33.0,29.32,NNE,33,2.0,6.0,88,0.00,,,0.01,,2013-01-11 19:22:00,
2013-01-11 13:32:00,36.0,32.0,29.31,NNE,25,5.0,9.0,86,0.00,,,0.01,,2013-01-11 19:32:00,
2013-01-11 13:41:00,33.0,30.0,29.31,NNW,329,3.0,8.0,88,0.00,,,0.01,,2013-01-11 19:41:00,
2013-01-11 13:43:00,36.0,32.0,29.31,NNE,25,5.0,9.0,86,0.00,,,0.01,,2013-01-11 19:43:00,
2013-01-11 13:53:00,36.0,32.0,29.30,NNE,28,3.0,12.0,84,0.00,,,0.01,,2013-01-11 19:53:00,
2013-01-11 14:03:00,33.0,30.0,29.31,NNW,329,3.0,8.0,88,0.00,,,0.01,,2013-01-11 20:03:00,
2013-01-11 14:12:00,33.0,30.0,29.31,NNW,329,3.0,8.0,88,0.00,,,0.01,,2013-01-11 20:12:00,
2013-01-11 14:22:00,33.0,30.0,29.31,NNW,329,3.0,8.0,88,0.00,,,0.01,,2013-01-11 20:22:00,
2013-01-11 14:33:00,33.0,30.0,29.31,NNW,329,3.0,8.0,88,0.00,,,0.01,,2013-01-11 20:33:00,
2013-01-11 14:53:00,31.0,28.0,29.33,ESE,115,5.0,10.0,89,0.00,,,0.01,,2013-01-11 20:53:00,
2013-01-11 15:03:00,30.0,27.0,29.35,NE,37,3.0,11.0,89,0.00,,,0.01,,2013-01-11 21:03:00,
2013-01-11 15:12:00,30.0,27.0,29.35,NE,37,3.0,11.0,89,0.00,,,0.01,,2013-01-11 21:12:00,
2013-01-11 15:23:00,30.0,27.0,29.36,West,259,3.0,7.0,89,0.00,,,0.01,,2013-01-11 21:23:00,
2013-01-11 15:33:00,29.0,26.0,29.37,South,188,2.0,7.0,89,0.00,,,0.01,,2013-01-11 21:33:00,
2013-01-11 15:42:00,29.0,26.0,29.37,South,188,2.0,7.0,89,0.00,,,0.01,,2013-01-11 21:42:00,
2013-01-11 15:52:00,29.0,26.0,29.38,SW,234,3.0,10.0,89,0.00,,,0.01,,2013-01-11 21:52:00,
2013-01-11 16:02:00,29.0,26.0,29.39,West,265,2.0,8.0,89,0.00,,,0.01,,2013-01-11 22:02:00,
2013-01-11 16:12:00,29.0,26.0,29.39,West,265,2.0,8.0,89,0.00,,,0.01,,2013-01-11 22:12:00,
2013-01-11 16:22:00,29.0,26.0,29.41,NNE,15,2.0,9.0,89,0.00,,,0.01,,2013-01-11 22:22:00,
2013-01-11 16:33:00,28.0,25.0,29.40,WSW,254,2.0,8.0,89,0.00,,,0.01,,2013-01-11 22:33:00,
2013-01-11 16:42:00,28.0,25.0,29.40,WSW,254,2.0,8.0,89,0.00,,,0.01,,2013-01-11 22:42:00,
2013-01-11 16:52:00,28.0,25.0,29.42,SW,227,3.0,12.0,89,0.00,,,0.01,,2013-01-11 22:52:00,
2013-01-11 17:02:00,27.0,24.0,29.45,WSW,237,4.0,11.0,88,0.00,,,0.01,,2013-01-11 23:02:00,
2013-01-11 17:13:00,27.0,24.0,29.45,WSW,237,4.0,11.0,88,0.00,,,0.01,,2013-01-11 23:13:00,
2013-01-11 17:22:00,27.0,24.0,29.47,WSW,246,3.0,9.0,88,0.00,,,0.01,,2013-01-11 23:22:00,
2013-01-11 17:32:00,26.0,23.0,29.49,WSW,246,4.0,17.0,87,0.00,,,0.01,,2013-01-11 23:32:00,
2013-01-11 17:43:00,26.0,23.0,29.49,WSW,246,4.0,17.0,87,0.00,,,0.01,,2013-01-11 23:43:00,
2013-01-11 17:53:00,26.0,23.0,29.51,West,265,4.0,8.0,88,0.00,,,0.01,,2013-01-11 23:53:00,
2013-01-11 18:02:00,25.0,21.0,29.53,West,259,5.0,16.0,85,0.00,,,0.01,,2013-01-12 00:02:00,
2013-01-11 18:12:00,25.0,21.0,29.53,West,259,5.0,16.0,85,0.00,,,0.01,,2013-01-12 00:12:00,
2013-01-11 18:23:00,24.0,20.0,29.56,West,265,5.0,14.0,86,0.00,,,0.01,,2013-01-12 00:23:00,
2013-01-11 18:33:00,22.0,18.0,29.57,SW,228,7.0,14.0,83,0.00,,,0.01,,2013-01-12 00:33:00,
2013-01-11 18:43:00,22.0,18.0,29.57,SW,228,7.0,14.0,83,0.00,,,0.01,,2013-01-12 00:43:00,
2013-01-11 18:52:00,21.0,17.0,29.59,WNW,289,3.0,12.0,83,0.00,,,0.01,,2013-01-12 00:52:00,
2013-01-11 19:02:00,21.0,17.0,29.61,SW,220,4.0,11.0,84,0.00,,,0.01,,2013-01-12 01:02:00,
2013-01-11 19:12:00,21.0,17.0,29.61,SW,220,4.0,11.0,84,0.00,,,0.01,,2013-01-12 01:12:00,
2013-01-11 19:22:00,20.0,17.0,29.63,SW,235,5.0,15.0,87,0.00,,,0.01,,2013-01-12 01:22:00,
2013-01-11 19:32:00,19.0,15.0,29.66,WSW,252,5.0,15.0,83,0.00,,,0.01,,2013-01-12 01:32:00,
2013-01-11 19:42:00,19.0,15.0,29.66,WSW,252,5.0,15.0,83,0.00,,,0.01,,2013-01-12 01:42:00,
2013-01-11 19:52:00,19.0,14.0,29.67,SW,214,6.0,16.0,81,0.00,,,0.01,,2013-01-12 01:52:00,
2013-01-11 20:02:00,18.0,13.0,29.68,West,265,5.0,14.0,82,0.00,,,0.01,,2013-01-12 02:02:00,
2013-01-11 20:12:00,18.0,13.0,29.68,West,265,5.0,14.0,82,0.00,,,0.01,,2013-01-12 02:12:00,
2013-01-11 20:22:00,18.0,13.0,29.70,WSW,257,4.0,14.0,79,0.00,,,0.01,,2013-01-12 02:22:00,
2013-01-11 20:33:00,17.0,11.0,29.71,WSW,241,4.0,9.0,78,0.00,,,0.01,,2013-01-12 02:33:00,
2013-01-11 20:42:00,17.0,11.0,29.71,WSW,241,4.0,9.0,78,0.00,,,0.01,,2013-01-12 02:42:00,
2013-01-11 20:53:00,17.0,11.0,29.72,SSW,212,4.0,13.0,78,0.00,,,0.01,,2013-01-12 02:53:00,
2013-01-11 21:02:00,17.0,11.0,29.74,WSW,257,3.0,9.0,77,0.00,,,0.01,,2013-01-12 03:02:00,
2013-01-11 21:12:00,17.0,11.0,29.74,WSW,257,3.0,9.0,77,0.00,,,0.01,,2013-01-12 03:12:00,
2013-01-11 21:22:00,17.0,11.0,29.75,SW,225,5.0,11.0,78,0.00,,,0.01,,2013-01-12 03:22:00,
2013-01-11 21:33:00,17.0,12.0,29.75,WSW,244,3.0,9.0,80,0.00,,,0.01,,2013-01-12 03:33:00,
2013-01-11 21:43:00,17.0,12.0,29.75,WSW,244,3.0,9.0,80,0.00,,,0.01,,2013-01-12 03:43:00,
2013-01-11 21:52:00,17.0,12.0,29.75,WSW,244,3.0,9.0,80,0.00,,,0.01,,2013-01-12 03:52:00,
2013-01-11 22:02:00,17.0,12.0,29.77,WSW,248,7.0,12.0,79,0.00,,,0.01,,2013-01-12 04:02:00,
2013-01-11 22:12:00,17.0,12.0,29.77,WSW,248,7.0,12.0,79,0.00,,,0.01,,2013-01-12 04:12:00,
2013-01-11 22:22:00,17.0,11.0,29.77,WSW,246,6.0,15.0,77,0.00,,,0.01,,2013-01-12 04:22:00,
2013-01-11 22:32:00,16.0,10.0,29.80,WSW,248,5.0,11.0,77,0.00,,,0.01,,2013-01-12 04:32:00,
2013-01-11 22:42:00,16.0,10.0,29.80,WSW,248,5.0,11.0,77,0.00,,,0.01,,2013-01-12 04:42:00,
2013-01-11 22:52:00,16.0,10.0,29.81,West,261,6.0,13.0,77,0.00,,,0.01,,2013-01-12 04:52:00,
2013-01-11 23:03:00,15.0,9.0,29.81,SSW,207,5.0,10.0,76,0.00,,,0.01,,2013-01-12 05:03:00,
2013-01-11 23:12:00,15.0,9.0,29.81,SSW,207,5.0,10.0,76,0.00,,,0.01,,2013-01-12 05:12:00,
2013-01-11 23:22:00,15.0,9.0,29.82,WSW,238,6.0,13.0,76,0.00,,,0.01,,2013-01-12 05:22:00,
2013-01-11 23:32:00,15.0,9.0,29.83,WSW,249,6.0,12.0,75,0.00,,,0.01,,2013-01-12 05:32:00,
2013-01-11 23:42:00,15.0,9.0,29.83,WSW,249,6.0,12.0,75,0.00,,,0.01,,2013-01-12 05:42:00,
2013-01-11 23:52:00,15.0,9.0,29.85,WSW,252,4.0,12.0,76,0.00,,,0.01,,2013-01-12 05:52:00,